Torna al catalogo

YZ-1 R/B

LostMEO
NORAD 43210·ROCKET BODY·🇨🇳 China

Lanciato Feb 12, 2018 da Xichang Satellite Launch Center

Loading…

Prossimi Passaggi (prossime 24 ore)

TLE

ObsoletoSource: Space-Track

Epoca: Aug 2, 2026, 04:15 UTC

1 43210U 18018D   26214.17738462 -.00000008  00000-0  00000-0 0  9990
2 43210  56.4678  69.6530 0038916 103.2863 257.2335  1.79055524 55383

Traccia YZ-1 R/B in tempo reale con AllMySat

Download on the App Store